Index of /20260430/WXO-DD/model_rdps/10km/06/020
Name Last modified Size Description
Parent Directory -
20260430T06Z_MSC_RDPS_AbsoluteVorticity_IsbL-0250_RLatLon0.09_PT020H.grib2 2026-04-30 08:46 618K
20260430T06Z_MSC_RDPS_AbsoluteVorticity_IsbL-0500_RLatLon0.09_PT020H.grib2 2026-04-30 08:46 567K
20260430T06Z_MSC_RDPS_AbsoluteVorticity_IsbL-0700_RLatLon0.09_PT020H.grib2 2026-04-30 08:46 628K
20260430T06Z_MSC_RDPS_AbsoluteVorticity_IsbL-0850_RLatLon0.09_PT020H.grib2 2026-04-30 08:46 768K
20260430T06Z_MSC_RDPS_AirTemp_AGL-120m_RLatLon0.09_PT020H.grib2 2026-04-30 08:46 383K
20260430T06Z_MSC_RDPS_AirTemp_AGL-2m_RLatLon0.09_PT020H.grib2 2026-04-30 08:46 621K
20260430T06Z_MSC_RDPS_AirTemp_AGL-40m_RLatLon0.09_PT020H.grib2 2026-04-30 08:46 395K
20260430T06Z_MSC_RDPS_AirTemp_AGL-80m_RLatLon0.09_PT020H.grib2 2026-04-30 08:46 387K
20260430T06Z_MSC_RDPS_AirTemp_IsbL-0001_RLatLon0.09_PT020H.grib2 2026-04-30 08:46 253K
20260430T06Z_MSC_RDPS_AirTemp_IsbL-0005_RLatLon0.09_PT020H.grib2 2026-04-30 08:46 285K
20260430T06Z_MSC_RDPS_AirTemp_IsbL-0010_RLatLon0.09_PT020H.grib2 2026-04-30 08:46 299K
20260430T06Z_MSC_RDPS_AirTemp_IsbL-0020_RLatLon0.09_PT020H.grib2 2026-04-30 08:46 311K
20260430T06Z_MSC_RDPS_AirTemp_IsbL-0030_RLatLon0.09_PT020H.grib2 2026-04-30 08:46 334K
20260430T06Z_MSC_RDPS_AirTemp_IsbL-0050_RLatLon0.09_PT020H.grib2 2026-04-30 08:46 309K
20260430T06Z_MSC_RDPS_AirTemp_IsbL-0100_RLatLon0.09_PT020H.grib2 2026-04-30 08:46 421K
20260430T06Z_MSC_RDPS_AirTemp_IsbL-0150_RLatLon0.09_PT020H.grib2 2026-04-30 08:46 424K
20260430T06Z_MSC_RDPS_AirTemp_IsbL-0175_RLatLon0.09_PT020H.grib2 2026-04-30 08:46 412K
20260430T06Z_MSC_RDPS_AirTemp_IsbL-0200_RLatLon0.09_PT020H.grib2 2026-04-30 08:46 416K
20260430T06Z_MSC_RDPS_AirTemp_IsbL-0225_RLatLon0.09_PT020H.grib2 2026-04-30 08:46 419K
20260430T06Z_MSC_RDPS_AirTemp_IsbL-0250_RLatLon0.09_PT020H.grib2 2026-04-30 08:46 427K
20260430T06Z_MSC_RDPS_AirTemp_IsbL-0275_RLatLon0.09_PT020H.grib2 2026-04-30 08:46 406K
20260430T06Z_MSC_RDPS_AirTemp_IsbL-0300_RLatLon0.09_PT020H.grib2 2026-04-30 08:46 413K
20260430T06Z_MSC_RDPS_AirTemp_IsbL-0350_RLatLon0.09_PT020H.grib2 2026-04-30 08:46 426K
20260430T06Z_MSC_RDPS_AirTemp_IsbL-0400_RLatLon0.09_PT020H.grib2 2026-04-30 08:46 426K
20260430T06Z_MSC_RDPS_AirTemp_IsbL-0450_RLatLon0.09_PT020H.grib2 2026-04-30 08:46 432K
20260430T06Z_MSC_RDPS_AirTemp_IsbL-0500_RLatLon0.09_PT020H.grib2 2026-04-30 08:46 407K
20260430T06Z_MSC_RDPS_AirTemp_IsbL-0550_RLatLon0.09_PT020H.grib2 2026-04-30 08:46 427K
20260430T06Z_MSC_RDPS_AirTemp_IsbL-0600_RLatLon0.09_PT020H.grib2 2026-04-30 08:46 447K
20260430T06Z_MSC_RDPS_AirTemp_IsbL-0650_RLatLon0.09_PT020H.grib2 2026-04-30 08:46 463K
20260430T06Z_MSC_RDPS_AirTemp_IsbL-0700_RLatLon0.09_PT020H.grib2 2026-04-30 08:46 378K
20260430T06Z_MSC_RDPS_AirTemp_IsbL-0750_RLatLon0.09_PT020H.grib2 2026-04-30 08:46 406K
20260430T06Z_MSC_RDPS_AirTemp_IsbL-0800_RLatLon0.09_PT020H.grib2 2026-04-30 08:46 441K
20260430T06Z_MSC_RDPS_AirTemp_IsbL-0850_RLatLon0.09_PT020H.grib2 2026-04-30 08:46 483K
20260430T06Z_MSC_RDPS_AirTemp_IsbL-0875_RLatLon0.09_PT020H.grib2 2026-04-30 08:46 504K
20260430T06Z_MSC_RDPS_AirTemp_IsbL-0900_RLatLon0.09_PT020H.grib2 2026-04-30 08:46 515K
20260430T06Z_MSC_RDPS_AirTemp_IsbL-0925_RLatLon0.09_PT020H.grib2 2026-04-30 08:46 514K
20260430T06Z_MSC_RDPS_AirTemp_IsbL-0950_RLatLon0.09_PT020H.grib2 2026-04-30 08:46 516K
20260430T06Z_MSC_RDPS_AirTemp_IsbL-0970_RLatLon0.09_PT020H.grib2 2026-04-30 08:46 511K
20260430T06Z_MSC_RDPS_AirTemp_IsbL-0985_RLatLon0.09_PT020H.grib2 2026-04-30 08:46 502K
20260430T06Z_MSC_RDPS_AirTemp_IsbL-1000_RLatLon0.09_PT020H.grib2 2026-04-30 08:46 486K
20260430T06Z_MSC_RDPS_AirTemp_IsbL-1015_RLatLon0.09_PT020H.grib2 2026-04-30 08:46 482K
20260430T06Z_MSC_RDPS_Albedo_Sfc_RLatLon0.09_PT020H.grib2 2026-04-30 08:46 162K
20260430T06Z_MSC_RDPS_CAPE_Sfc_RLatLon0.09_PT020H.grib2 2026-04-30 08:46 1.6M
20260430T06Z_MSC_RDPS_CIN_Sfc_RLatLon0.09_PT020H.grib2 2026-04-30 08:46 1.2M
20260430T06Z_MSC_RDPS_CloudWater_EAtm_RLatLon0.09_PT020H.grib2 2026-04-30 08:46 221K
20260430T06Z_MSC_RDPS_ConvectivePrecip-Accum_Sfc_RLatLon0.09_PT020H.grib2 2026-04-30 08:46 775K
20260430T06Z_MSC_RDPS_DewPointDepression_AGL-2m_RLatLon0.09_PT020H.grib2 2026-04-30 08:46 398K
20260430T06Z_MSC_RDPS_DewPointDepression_IsbL-0001_RLatLon0.09_PT020H.grib2 2026-04-30 08:46 193
20260430T06Z_MSC_RDPS_DewPointDepression_IsbL-0005_RLatLon0.09_PT020H.grib2 2026-04-30 08:46 193
20260430T06Z_MSC_RDPS_DewPointDepression_IsbL-0010_RLatLon0.09_PT020H.grib2 2026-04-30 08:46 193
20260430T06Z_MSC_RDPS_DewPointDepression_IsbL-0020_RLatLon0.09_PT020H.grib2 2026-04-30 08:46 193
20260430T06Z_MSC_RDPS_DewPointDepression_IsbL-0030_RLatLon0.09_PT020H.grib2 2026-04-30 08:46 193
20260430T06Z_MSC_RDPS_DewPointDepression_IsbL-0050_RLatLon0.09_PT020H.grib2 2026-04-30 08:46 81K
20260430T06Z_MSC_RDPS_DewPointDepression_IsbL-0100_RLatLon0.09_PT020H.grib2 2026-04-30 08:46 128K
20260430T06Z_MSC_RDPS_DewPointDepression_IsbL-0150_RLatLon0.09_PT020H.grib2 2026-04-30 08:46 151K
20260430T06Z_MSC_RDPS_DewPointDepression_IsbL-0175_RLatLon0.09_PT020H.grib2 2026-04-30 08:46 183K
20260430T06Z_MSC_RDPS_DewPointDepression_IsbL-0200_RLatLon0.09_PT020H.grib2 2026-04-30 08:46 219K
20260430T06Z_MSC_RDPS_DewPointDepression_IsbL-0225_RLatLon0.09_PT020H.grib2 2026-04-30 08:46 262K
20260430T06Z_MSC_RDPS_DewPointDepression_IsbL-0250_RLatLon0.09_PT020H.grib2 2026-04-30 08:46 303K
20260430T06Z_MSC_RDPS_DewPointDepression_IsbL-0275_RLatLon0.09_PT020H.grib2 2026-04-30 08:46 310K
20260430T06Z_MSC_RDPS_DewPointDepression_IsbL-0300_RLatLon0.09_PT020H.grib2 2026-04-30 08:46 332K
20260430T06Z_MSC_RDPS_DewPointDepression_IsbL-0350_RLatLon0.09_PT020H.grib2 2026-04-30 08:46 335K
20260430T06Z_MSC_RDPS_DewPointDepression_IsbL-0400_RLatLon0.09_PT020H.grib2 2026-04-30 08:46 343K
20260430T06Z_MSC_RDPS_DewPointDepression_IsbL-0450_RLatLon0.09_PT020H.grib2 2026-04-30 08:46 350K
20260430T06Z_MSC_RDPS_DewPointDepression_IsbL-0500_RLatLon0.09_PT020H.grib2 2026-04-30 08:46 352K
20260430T06Z_MSC_RDPS_DewPointDepression_IsbL-0550_RLatLon0.09_PT020H.grib2 2026-04-30 08:46 366K
20260430T06Z_MSC_RDPS_DewPointDepression_IsbL-0600_RLatLon0.09_PT020H.grib2 2026-04-30 08:46 381K
20260430T06Z_MSC_RDPS_DewPointDepression_IsbL-0650_RLatLon0.09_PT020H.grib2 2026-04-30 08:46 388K
20260430T06Z_MSC_RDPS_DewPointDepression_IsbL-0700_RLatLon0.09_PT020H.grib2 2026-04-30 08:46 398K
20260430T06Z_MSC_RDPS_DewPointDepression_IsbL-0750_RLatLon0.09_PT020H.grib2 2026-04-30 08:46 414K
20260430T06Z_MSC_RDPS_DewPointDepression_IsbL-0800_RLatLon0.09_PT020H.grib2 2026-04-30 08:46 441K
20260430T06Z_MSC_RDPS_DewPointDepression_IsbL-0850_RLatLon0.09_PT020H.grib2 2026-04-30 08:46 463K
20260430T06Z_MSC_RDPS_DewPointDepression_IsbL-0875_RLatLon0.09_PT020H.grib2 2026-04-30 08:46 470K
20260430T06Z_MSC_RDPS_DewPointDepression_IsbL-0900_RLatLon0.09_PT020H.grib2 2026-04-30 08:46 464K
20260430T06Z_MSC_RDPS_DewPointDepression_IsbL-0925_RLatLon0.09_PT020H.grib2 2026-04-30 08:46 449K
20260430T06Z_MSC_RDPS_DewPointDepression_IsbL-0950_RLatLon0.09_PT020H.grib2 2026-04-30 08:46 441K
20260430T06Z_MSC_RDPS_DewPointDepression_IsbL-0970_RLatLon0.09_PT020H.grib2 2026-04-30 08:46 431K
20260430T06Z_MSC_RDPS_DewPointDepression_IsbL-0985_RLatLon0.09_PT020H.grib2 2026-04-30 08:46 425K
20260430T06Z_MSC_RDPS_DewPointDepression_IsbL-1000_RLatLon0.09_PT020H.grib2 2026-04-30 08:46 418K
20260430T06Z_MSC_RDPS_DewPointDepression_IsbL-1015_RLatLon0.09_PT020H.grib2 2026-04-30 08:46 408K
20260430T06Z_MSC_RDPS_DewPoint_AGL-2m_RLatLon0.09_PT020H.grib2 2026-04-30 08:46 304K
20260430T06Z_MSC_RDPS_DownwardLongwaveRadiationFlux-Accum_Sfc_RLatLon0.09_PT020H.grib2 2026-04-30 08:46 407K
20260430T06Z_MSC_RDPS_DownwardShortwaveRadiationFlux-Accum_NTAtm_RLatLon0.09_PT020H.grib2 2026-04-30 08:46 143K
20260430T06Z_MSC_RDPS_DownwardShortwaveRadiationFlux-Accum_Sfc_RLatLon0.09_PT020H.grib2 2026-04-30 08:46 616K
20260430T06Z_MSC_RDPS_FreezingRain-Accum1h_Sfc_RLatLon0.09_PT020H.grib2 2026-04-30 08:46 22K
20260430T06Z_MSC_RDPS_FreezingRain-Accum_Sfc_RLatLon0.09_PT020H.grib2 2026-04-30 08:46 94K
20260430T06Z_MSC_RDPS_GeopotentialHeight_IsbL-0001_RLatLon0.09_PT020H.grib2 2026-04-30 08:46 305K
20260430T06Z_MSC_RDPS_GeopotentialHeight_IsbL-0005_RLatLon0.09_PT020H.grib2 2026-04-30 08:46 296K
20260430T06Z_MSC_RDPS_GeopotentialHeight_IsbL-0010_RLatLon0.09_PT020H.grib2 2026-04-30 08:46 298K
20260430T06Z_MSC_RDPS_GeopotentialHeight_IsbL-0020_RLatLon0.09_PT020H.grib2 2026-04-30 08:46 298K
20260430T06Z_MSC_RDPS_GeopotentialHeight_IsbL-0030_RLatLon0.09_PT020H.grib2 2026-04-30 08:46 299K
20260430T06Z_MSC_RDPS_GeopotentialHeight_IsbL-0050_RLatLon0.09_PT020H.grib2 2026-04-30 08:46 301K
20260430T06Z_MSC_RDPS_GeopotentialHeight_IsbL-0100_RLatLon0.09_PT020H.grib2 2026-04-30 08:46 280K
20260430T06Z_MSC_RDPS_GeopotentialHeight_IsbL-0150_RLatLon0.09_PT020H.grib2 2026-04-30 08:46 224K
20260430T06Z_MSC_RDPS_GeopotentialHeight_IsbL-0175_RLatLon0.09_PT020H.grib2 2026-04-30 08:46 228K
20260430T06Z_MSC_RDPS_GeopotentialHeight_IsbL-0200_RLatLon0.09_PT020H.grib2 2026-04-30 08:46 261K
20260430T06Z_MSC_RDPS_GeopotentialHeight_IsbL-0225_RLatLon0.09_PT020H.grib2 2026-04-30 08:46 264K
20260430T06Z_MSC_RDPS_GeopotentialHeight_IsbL-0250_RLatLon0.09_PT020H.grib2 2026-04-30 08:46 265K
20260430T06Z_MSC_RDPS_GeopotentialHeight_IsbL-0275_RLatLon0.09_PT020H.grib2 2026-04-30 08:46 265K
20260430T06Z_MSC_RDPS_GeopotentialHeight_IsbL-0300_RLatLon0.09_PT020H.grib2 2026-04-30 08:46 264K
20260430T06Z_MSC_RDPS_GeopotentialHeight_IsbL-0350_RLatLon0.09_PT020H.grib2 2026-04-30 08:46 230K
20260430T06Z_MSC_RDPS_GeopotentialHeight_IsbL-0400_RLatLon0.09_PT020H.grib2 2026-04-30 08:46 227K
20260430T06Z_MSC_RDPS_GeopotentialHeight_IsbL-0450_RLatLon0.09_PT020H.grib2 2026-04-30 08:46 294K
20260430T06Z_MSC_RDPS_GeopotentialHeight_IsbL-0500_RLatLon0.09_PT020H.grib2 2026-04-30 08:46 289K
20260430T06Z_MSC_RDPS_GeopotentialHeight_IsbL-0550_RLatLon0.09_PT020H.grib2 2026-04-30 08:46 285K
20260430T06Z_MSC_RDPS_GeopotentialHeight_IsbL-0600_RLatLon0.09_PT020H.grib2 2026-04-30 08:46 281K
20260430T06Z_MSC_RDPS_GeopotentialHeight_IsbL-0650_RLatLon0.09_PT020H.grib2 2026-04-30 08:46 252K
20260430T06Z_MSC_RDPS_GeopotentialHeight_IsbL-0700_RLatLon0.09_PT020H.grib2 2026-04-30 08:46 332K
20260430T06Z_MSC_RDPS_GeopotentialHeight_IsbL-0750_RLatLon0.09_PT020H.grib2 2026-04-30 08:46 334K
20260430T06Z_MSC_RDPS_GeopotentialHeight_IsbL-0800_RLatLon0.09_PT020H.grib2 2026-04-30 08:46 339K
20260430T06Z_MSC_RDPS_GeopotentialHeight_IsbL-0850_RLatLon0.09_PT020H.grib2 2026-04-30 08:46 346K
20260430T06Z_MSC_RDPS_GeopotentialHeight_IsbL-0875_RLatLon0.09_PT020H.grib2 2026-04-30 08:46 349K
20260430T06Z_MSC_RDPS_GeopotentialHeight_IsbL-0900_RLatLon0.09_PT020H.grib2 2026-04-30 08:46 353K
20260430T06Z_MSC_RDPS_GeopotentialHeight_IsbL-0925_RLatLon0.09_PT020H.grib2 2026-04-30 08:46 387K
20260430T06Z_MSC_RDPS_GeopotentialHeight_IsbL-0950_RLatLon0.09_PT020H.grib2 2026-04-30 08:46 358K
20260430T06Z_MSC_RDPS_GeopotentialHeight_IsbL-0970_RLatLon0.09_PT020H.grib2 2026-04-30 08:46 364K
20260430T06Z_MSC_RDPS_GeopotentialHeight_IsbL-0985_RLatLon0.09_PT020H.grib2 2026-04-30 08:46 373K
20260430T06Z_MSC_RDPS_GeopotentialHeight_IsbL-1000_RLatLon0.09_PT020H.grib2 2026-04-30 08:46 384K
20260430T06Z_MSC_RDPS_GeopotentialHeight_IsbL-1015_RLatLon0.09_PT020H.grib2 2026-04-30 08:46 397K
20260430T06Z_MSC_RDPS_Humidex_Sfc_RLatLon0.09_PT020H.grib2 2026-04-30 08:46 2.2M
20260430T06Z_MSC_RDPS_IcePellets-Accum1h_Sfc_RLatLon0.09_PT020H.grib2 2026-04-30 08:46 2.4K
20260430T06Z_MSC_RDPS_IcePellets-Accum_Sfc_RLatLon0.09_PT020H.grib2 2026-04-30 08:46 5.7K
20260430T06Z_MSC_RDPS_KIndex_Sfc_RLatLon0.09_PT020H.grib2 2026-04-30 08:46 2.5M
20260430T06Z_MSC_RDPS_LatentHeatNetFlux_Sfc_RLatLon0.09_PT020H.grib2 2026-04-30 08:46 313K
20260430T06Z_MSC_RDPS_LiftedIndex-MU-VT_IsbL-0500_RLatLon0.09_PT020H.grib2 2026-04-30 08:46 2.4M
20260430T06Z_MSC_RDPS_NetLongwaveRadiationFlux-Accum_Sfc_RLatLon0.09_PT020H.grib2 2026-04-30 08:46 545K
20260430T06Z_MSC_RDPS_NetShortwaveRadiationFlux-Accum_Sfc_RLatLon0.09_PT020H.grib2 2026-04-30 08:46 615K
20260430T06Z_MSC_RDPS_PlanetaryBoundaryLayerHeight_Sfc_RLatLon0.09_PT020H.grib2 2026-04-30 08:46 1.1M
20260430T06Z_MSC_RDPS_Precip-Accum1h_Sfc_RLatLon0.09_PT020H.grib2 2026-04-30 08:46 1.2M
20260430T06Z_MSC_RDPS_Precip-Accum_Sfc_RLatLon0.09_PT020H.grib2 2026-04-30 08:46 1.7M
20260430T06Z_MSC_RDPS_PrecipRate_Sfc_RLatLon0.09_PT020H.grib2 2026-04-30 08:46 180K
20260430T06Z_MSC_RDPS_PrecipType-Instant_Sfc_RLatLon0.09_PT020H.grib2 2026-04-30 08:46 550K
20260430T06Z_MSC_RDPS_Pressure-Trend3h_Sfc_RLatLon0.09_PT020H.grib2 2026-04-30 08:46 1.2M
20260430T06Z_MSC_RDPS_Pressure_MSL_RLatLon0.09_PT020H.grib2 2026-04-30 08:46 320K
20260430T06Z_MSC_RDPS_Pressure_PVU-1.5_RLatLon0.09_PT020H.grib2 2026-04-30 08:46 2.5M
20260430T06Z_MSC_RDPS_Pressure_PVU-1_RLatLon0.09_PT020H.grib2 2026-04-30 08:46 2.4M
20260430T06Z_MSC_RDPS_Pressure_PVU-2_RLatLon0.09_PT020H.grib2 2026-04-30 08:46 2.4M
20260430T06Z_MSC_RDPS_Pressure_Sfc_RLatLon0.09_PT020H.grib2 2026-04-30 08:46 498K
20260430T06Z_MSC_RDPS_RadiativeTemp_Sfc_RLatLon0.09_PT020H.grib2 2026-04-30 08:46 303K
20260430T06Z_MSC_RDPS_Rain-Accum1h_Sfc_RLatLon0.09_PT020H.grib2 2026-04-30 08:46 609K
20260430T06Z_MSC_RDPS_Rain-Accum_Sfc_RLatLon0.09_PT020H.grib2 2026-04-30 08:46 1.2M
20260430T06Z_MSC_RDPS_RelativeHumidity_AGL-2m_RLatLon0.09_PT020H.grib2 2026-04-30 08:46 1.0M
20260430T06Z_MSC_RDPS_RelativeHumidity_IsbL-0010_RLatLon0.09_PT020H.grib2 2026-04-30 08:46 634K
20260430T06Z_MSC_RDPS_RelativeHumidity_IsbL-0020_RLatLon0.09_PT020H.grib2 2026-04-30 08:46 679K
20260430T06Z_MSC_RDPS_RelativeHumidity_IsbL-0030_RLatLon0.09_PT020H.grib2 2026-04-30 08:46 601K
20260430T06Z_MSC_RDPS_RelativeHumidity_IsbL-0050_RLatLon0.09_PT020H.grib2 2026-04-30 08:46 366K
20260430T06Z_MSC_RDPS_RelativeHumidity_IsbL-0100_RLatLon0.09_PT020H.grib2 2026-04-30 08:46 285K
20260430T06Z_MSC_RDPS_RelativeHumidity_IsbL-0150_RLatLon0.09_PT020H.grib2 2026-04-30 08:46 410K
20260430T06Z_MSC_RDPS_RelativeHumidity_IsbL-0175_RLatLon0.09_PT020H.grib2 2026-04-30 08:46 476K
20260430T06Z_MSC_RDPS_RelativeHumidity_IsbL-0200_RLatLon0.09_PT020H.grib2 2026-04-30 08:46 557K
20260430T06Z_MSC_RDPS_RelativeHumidity_IsbL-0225_RLatLon0.09_PT020H.grib2 2026-04-30 08:46 628K
20260430T06Z_MSC_RDPS_RelativeHumidity_IsbL-0250_RLatLon0.09_PT020H.grib2 2026-04-30 08:46 704K
20260430T06Z_MSC_RDPS_RelativeHumidity_IsbL-0275_RLatLon0.09_PT020H.grib2 2026-04-30 08:46 730K
20260430T06Z_MSC_RDPS_RelativeHumidity_IsbL-0300_RLatLon0.09_PT020H.grib2 2026-04-30 08:46 776K
20260430T06Z_MSC_RDPS_RelativeHumidity_IsbL-0350_RLatLon0.09_PT020H.grib2 2026-04-30 08:46 792K
20260430T06Z_MSC_RDPS_RelativeHumidity_IsbL-0400_RLatLon0.09_PT020H.grib2 2026-04-30 08:46 800K
20260430T06Z_MSC_RDPS_RelativeHumidity_IsbL-0450_RLatLon0.09_PT020H.grib2 2026-04-30 08:46 804K
20260430T06Z_MSC_RDPS_RelativeHumidity_IsbL-0500_RLatLon0.09_PT020H.grib2 2026-04-30 08:46 803K
20260430T06Z_MSC_RDPS_RelativeHumidity_IsbL-0550_RLatLon0.09_PT020H.grib2 2026-04-30 08:46 824K
20260430T06Z_MSC_RDPS_RelativeHumidity_IsbL-0600_RLatLon0.09_PT020H.grib2 2026-04-30 08:46 852K
20260430T06Z_MSC_RDPS_RelativeHumidity_IsbL-0650_RLatLon0.09_PT020H.grib2 2026-04-30 08:46 868K
20260430T06Z_MSC_RDPS_RelativeHumidity_IsbL-0700_RLatLon0.09_PT020H.grib2 2026-04-30 08:46 892K
20260430T06Z_MSC_RDPS_RelativeHumidity_IsbL-0750_RLatLon0.09_PT020H.grib2 2026-04-30 08:46 936K
20260430T06Z_MSC_RDPS_RelativeHumidity_IsbL-0800_RLatLon0.09_PT020H.grib2 2026-04-30 08:46 1.0M
20260430T06Z_MSC_RDPS_RelativeHumidity_IsbL-0850_RLatLon0.09_PT020H.grib2 2026-04-30 08:46 1.0M
20260430T06Z_MSC_RDPS_RelativeHumidity_IsbL-0875_RLatLon0.09_PT020H.grib2 2026-04-30 08:46 1.0M
20260430T06Z_MSC_RDPS_RelativeHumidity_IsbL-0900_RLatLon0.09_PT020H.grib2 2026-04-30 08:46 1.1M
20260430T06Z_MSC_RDPS_RelativeHumidity_IsbL-0925_RLatLon0.09_PT020H.grib2 2026-04-30 08:46 1.0M
20260430T06Z_MSC_RDPS_RelativeHumidity_IsbL-0950_RLatLon0.09_PT020H.grib2 2026-04-30 08:46 1.1M
20260430T06Z_MSC_RDPS_RelativeHumidity_IsbL-0970_RLatLon0.09_PT020H.grib2 2026-04-30 08:46 1.0M
20260430T06Z_MSC_RDPS_RelativeHumidity_IsbL-0985_RLatLon0.09_PT020H.grib2 2026-04-30 08:46 1.0M
20260430T06Z_MSC_RDPS_RelativeHumidity_IsbL-1000_RLatLon0.09_PT020H.grib2 2026-04-30 08:46 1.0M
20260430T06Z_MSC_RDPS_RelativeHumidity_IsbL-1015_RLatLon0.09_PT020H.grib2 2026-04-30 08:46 1.0M
20260430T06Z_MSC_RDPS_Runoff-Accum_Sfc_RLatLon0.09_PT020H.grib2 2026-04-30 08:46 46K
20260430T06Z_MSC_RDPS_SWEATIndex_Sfc_RLatLon0.09_PT020H.grib2 2026-04-30 08:46 2.4M
20260430T06Z_MSC_RDPS_SeeingIndex_EAtm_RLatLon0.09_PT020H.grib2 2026-04-30 08:46 1.0M
20260430T06Z_MSC_RDPS_SensibleHeatNetFlux_Sfc_RLatLon0.09_PT020H.grib2 2026-04-30 08:46 282K
20260430T06Z_MSC_RDPS_ShowalterIndex_IsbL-0500_RLatLon0.09_PT020H.grib2 2026-04-30 08:46 2.6M
20260430T06Z_MSC_RDPS_SkyTransparencyIndex_EAtm_RLatLon0.09_PT020H.grib2 2026-04-30 08:46 700K
20260430T06Z_MSC_RDPS_Snow-Accum1h_Sfc_RLatLon0.09_PT020H.grib2 2026-04-30 08:46 437K
20260430T06Z_MSC_RDPS_Snow-Accum_Sfc_RLatLon0.09_PT020H.grib2 2026-04-30 08:46 643K
20260430T06Z_MSC_RDPS_SnowDensity_Sfc_RLatLon0.09_PT020H.grib2 2026-04-30 08:46 174K
20260430T06Z_MSC_RDPS_SnowDepth_Sfc_RLatLon0.09_PT020H.grib2 2026-04-30 08:46 672K
20260430T06Z_MSC_RDPS_SoilTemp_DBS-0to10cm_RLatLon0.09_PT020H.grib2 2026-04-30 08:46 222K
20260430T06Z_MSC_RDPS_SoilTemp_Sfc_RLatLon0.09_PT020H.grib2 2026-04-30 08:46 261K
20260430T06Z_MSC_RDPS_SoilVolumetricIceContent_Sfc_RLatLon0.09_PT020H.grib2 2026-04-30 08:46 162K
20260430T06Z_MSC_RDPS_SoilVolumetricWaterContent_DBS-0to10cm_RLatLon0.09_PT020H.grib2 2026-04-30 08:46 268K
20260430T06Z_MSC_RDPS_SoilVolumetricWaterContent_DBS-0to1cm_RLatLon0.09_PT020H.grib2 2026-04-30 08:46 335K
20260430T06Z_MSC_RDPS_SpecificHumidity_AGL-120m_RLatLon0.09_PT020H.grib2 2026-04-30 08:46 480K
20260430T06Z_MSC_RDPS_SpecificHumidity_AGL-2m_RLatLon0.09_PT020H.grib2 2026-04-30 08:46 648K
20260430T06Z_MSC_RDPS_SpecificHumidity_AGL-40m_RLatLon0.09_PT020H.grib2 2026-04-30 08:46 486K
20260430T06Z_MSC_RDPS_SpecificHumidity_AGL-80m_RLatLon0.09_PT020H.grib2 2026-04-30 08:46 481K
20260430T06Z_MSC_RDPS_SpecificHumidity_IsbL-0001_RLatLon0.09_PT020H.grib2 2026-04-30 08:46 393K
20260430T06Z_MSC_RDPS_SpecificHumidity_IsbL-0005_RLatLon0.09_PT020H.grib2 2026-04-30 08:46 362K
20260430T06Z_MSC_RDPS_SpecificHumidity_IsbL-0010_RLatLon0.09_PT020H.grib2 2026-04-30 08:46 396K
20260430T06Z_MSC_RDPS_SpecificHumidity_IsbL-0020_RLatLon0.09_PT020H.grib2 2026-04-30 08:46 387K
20260430T06Z_MSC_RDPS_SpecificHumidity_IsbL-0030_RLatLon0.09_PT020H.grib2 2026-04-30 08:46 372K
20260430T06Z_MSC_RDPS_SpecificHumidity_IsbL-0050_RLatLon0.09_PT020H.grib2 2026-04-30 08:46 489K
20260430T06Z_MSC_RDPS_SpecificHumidity_IsbL-0100_RLatLon0.09_PT020H.grib2 2026-04-30 08:46 431K
20260430T06Z_MSC_RDPS_SpecificHumidity_IsbL-0150_RLatLon0.09_PT020H.grib2 2026-04-30 08:46 457K
20260430T06Z_MSC_RDPS_SpecificHumidity_IsbL-0175_RLatLon0.09_PT020H.grib2 2026-04-30 08:46 537K
20260430T06Z_MSC_RDPS_SpecificHumidity_IsbL-0200_RLatLon0.09_PT020H.grib2 2026-04-30 08:46 452K
20260430T06Z_MSC_RDPS_SpecificHumidity_IsbL-0225_RLatLon0.09_PT020H.grib2 2026-04-30 08:46 456K
20260430T06Z_MSC_RDPS_SpecificHumidity_IsbL-0250_RLatLon0.09_PT020H.grib2 2026-04-30 08:46 567K
20260430T06Z_MSC_RDPS_SpecificHumidity_IsbL-0275_RLatLon0.09_PT020H.grib2 2026-04-30 08:46 484K
20260430T06Z_MSC_RDPS_SpecificHumidity_IsbL-0300_RLatLon0.09_PT020H.grib2 2026-04-30 08:46 584K
20260430T06Z_MSC_RDPS_SpecificHumidity_IsbL-0350_RLatLon0.09_PT020H.grib2 2026-04-30 08:46 547K
20260430T06Z_MSC_RDPS_SpecificHumidity_IsbL-0400_RLatLon0.09_PT020H.grib2 2026-04-30 08:46 526K
20260430T06Z_MSC_RDPS_SpecificHumidity_IsbL-0450_RLatLon0.09_PT020H.grib2 2026-04-30 08:46 578K
20260430T06Z_MSC_RDPS_SpecificHumidity_IsbL-0500_RLatLon0.09_PT020H.grib2 2026-04-30 08:46 509K
20260430T06Z_MSC_RDPS_SpecificHumidity_IsbL-0550_RLatLon0.09_PT020H.grib2 2026-04-30 08:46 584K
20260430T06Z_MSC_RDPS_SpecificHumidity_IsbL-0600_RLatLon0.09_PT020H.grib2 2026-04-30 08:46 643K
20260430T06Z_MSC_RDPS_SpecificHumidity_IsbL-0650_RLatLon0.09_PT020H.grib2 2026-04-30 08:46 562K
20260430T06Z_MSC_RDPS_SpecificHumidity_IsbL-0700_RLatLon0.09_PT020H.grib2 2026-04-30 08:46 604K
20260430T06Z_MSC_RDPS_SpecificHumidity_IsbL-0750_RLatLon0.09_PT020H.grib2 2026-04-30 08:46 657K
20260430T06Z_MSC_RDPS_SpecificHumidity_IsbL-0800_RLatLon0.09_PT020H.grib2 2026-04-30 08:46 729K
20260430T06Z_MSC_RDPS_SpecificHumidity_IsbL-0850_RLatLon0.09_PT020H.grib2 2026-04-30 08:46 795K
20260430T06Z_MSC_RDPS_SpecificHumidity_IsbL-0875_RLatLon0.09_PT020H.grib2 2026-04-30 08:46 822K
20260430T06Z_MSC_RDPS_SpecificHumidity_IsbL-0900_RLatLon0.09_PT020H.grib2 2026-04-30 08:46 838K
20260430T06Z_MSC_RDPS_SpecificHumidity_IsbL-0925_RLatLon0.09_PT020H.grib2 2026-04-30 08:46 840K
20260430T06Z_MSC_RDPS_SpecificHumidity_IsbL-0950_RLatLon0.09_PT020H.grib2 2026-04-30 08:46 841K
20260430T06Z_MSC_RDPS_SpecificHumidity_IsbL-0970_RLatLon0.09_PT020H.grib2 2026-04-30 08:46 687K
20260430T06Z_MSC_RDPS_SpecificHumidity_IsbL-0985_RLatLon0.09_PT020H.grib2 2026-04-30 08:46 676K
20260430T06Z_MSC_RDPS_SpecificHumidity_IsbL-1000_RLatLon0.09_PT020H.grib2 2026-04-30 08:46 667K
20260430T06Z_MSC_RDPS_SpecificHumidity_IsbL-1015_RLatLon0.09_PT020H.grib2 2026-04-30 08:46 657K
20260430T06Z_MSC_RDPS_SpecificHumidity_Sfc_RLatLon0.09_PT020H.grib2 2026-04-30 08:46 318K
20260430T06Z_MSC_RDPS_StormRelativeHelicity_EtaL-10000_RLatLon0.09_PT020H.grib2 2026-04-30 08:46 1.1M
20260430T06Z_MSC_RDPS_StormSeverityIndex_EtaL-10000_RLatLon0.09_PT020H.grib2 2026-04-30 08:46 1.2M
20260430T06Z_MSC_RDPS_Thickness_IsbL-0850to0700_RLatLon0.09_PT020H.grib2 2026-04-30 08:46 175K
20260430T06Z_MSC_RDPS_Thickness_IsbL-1000to0500_RLatLon0.09_PT020H.grib2 2026-04-30 08:46 197K
20260430T06Z_MSC_RDPS_Thickness_IsbL-1000to0850_RLatLon0.09_PT020H.grib2 2026-04-30 08:46 182K
20260430T06Z_MSC_RDPS_TotalCloudCover_Sfc_RLatLon0.09_PT020H.grib2 2026-04-30 08:46 654K
20260430T06Z_MSC_RDPS_TotalTotalsIndex_Sfc_RLatLon0.09_PT020H.grib2 2026-04-30 08:46 2.4M
20260430T06Z_MSC_RDPS_UVIndex-ClearSky_Sfc_RLatLon0.09_PT020H.grib2 2026-04-30 08:46 117K
20260430T06Z_MSC_RDPS_UVIndex_Sfc_RLatLon0.09_PT020H.grib2 2026-04-30 08:46 247K
20260430T06Z_MSC_RDPS_UpwardLongwaveRadiationFlux_NTAtm_RLatLon0.09_PT020H.grib2 2026-04-30 08:46 491K
20260430T06Z_MSC_RDPS_UpwardShortwaveRadiationFlux_NTAtm_RLatLon0.09_PT020H.grib2 2026-04-30 08:46 234K
20260430T06Z_MSC_RDPS_VerticalVelocity_IsbL-0250_RLatLon0.09_PT020H.grib2 2026-04-30 08:46 550K
20260430T06Z_MSC_RDPS_VerticalVelocity_IsbL-0500_RLatLon0.09_PT020H.grib2 2026-04-30 08:46 676K
20260430T06Z_MSC_RDPS_VerticalVelocity_IsbL-0700_RLatLon0.09_PT020H.grib2 2026-04-30 08:46 591K
20260430T06Z_MSC_RDPS_VerticalVelocity_IsbL-0850_RLatLon0.09_PT020H.grib2 2026-04-30 08:46 698K
20260430T06Z_MSC_RDPS_VerticalWindShear_EtaL-6500_RLatLon0.09_PT020H.grib2 2026-04-30 08:46 1.2M
20260430T06Z_MSC_RDPS_WindChill_Sfc_RLatLon0.09_PT020H.grib2 2026-04-30 08:46 1.1M
20260430T06Z_MSC_RDPS_WindDir_AGL-10m_RLatLon0.09_PT020H.grib2 2026-04-30 08:46 963K
20260430T06Z_MSC_RDPS_WindDir_AGL-120m_RLatLon0.09_PT020H.grib2 2026-04-30 08:46 603K
20260430T06Z_MSC_RDPS_WindDir_AGL-40m_RLatLon0.09_PT020H.grib2 2026-04-30 08:46 632K
20260430T06Z_MSC_RDPS_WindDir_AGL-80m_RLatLon0.09_PT020H.grib2 2026-04-30 08:46 614K
20260430T06Z_MSC_RDPS_WindDir_IsbL-0001_RLatLon0.09_PT020H.grib2 2026-04-30 08:46 320K
20260430T06Z_MSC_RDPS_WindDir_IsbL-0005_RLatLon0.09_PT020H.grib2 2026-04-30 08:46 372K
20260430T06Z_MSC_RDPS_WindDir_IsbL-0010_RLatLon0.09_PT020H.grib2 2026-04-30 08:46 388K
20260430T06Z_MSC_RDPS_WindDir_IsbL-0020_RLatLon0.09_PT020H.grib2 2026-04-30 08:46 429K
20260430T06Z_MSC_RDPS_WindDir_IsbL-0030_RLatLon0.09_PT020H.grib2 2026-04-30 08:46 419K
20260430T06Z_MSC_RDPS_WindDir_IsbL-0050_RLatLon0.09_PT020H.grib2 2026-04-30 08:46 417K
20260430T06Z_MSC_RDPS_WindDir_IsbL-0100_RLatLon0.09_PT020H.grib2 2026-04-30 08:46 433K
20260430T06Z_MSC_RDPS_WindDir_IsbL-0150_RLatLon0.09_PT020H.grib2 2026-04-30 08:46 430K
20260430T06Z_MSC_RDPS_WindDir_IsbL-0175_RLatLon0.09_PT020H.grib2 2026-04-30 08:46 447K
20260430T06Z_MSC_RDPS_WindDir_IsbL-0200_RLatLon0.09_PT020H.grib2 2026-04-30 08:46 455K
20260430T06Z_MSC_RDPS_WindDir_IsbL-0225_RLatLon0.09_PT020H.grib2 2026-04-30 08:46 460K
20260430T06Z_MSC_RDPS_WindDir_IsbL-0250_RLatLon0.09_PT020H.grib2 2026-04-30 08:46 464K
20260430T06Z_MSC_RDPS_WindDir_IsbL-0275_RLatLon0.09_PT020H.grib2 2026-04-30 08:46 487K
20260430T06Z_MSC_RDPS_WindDir_IsbL-0300_RLatLon0.09_PT020H.grib2 2026-04-30 08:46 483K
20260430T06Z_MSC_RDPS_WindDir_IsbL-0350_RLatLon0.09_PT020H.grib2 2026-04-30 08:46 498K
20260430T06Z_MSC_RDPS_WindDir_IsbL-0400_RLatLon0.09_PT020H.grib2 2026-04-30 08:46 510K
20260430T06Z_MSC_RDPS_WindDir_IsbL-0450_RLatLon0.09_PT020H.grib2 2026-04-30 08:46 522K
20260430T06Z_MSC_RDPS_WindDir_IsbL-0500_RLatLon0.09_PT020H.grib2 2026-04-30 08:46 538K
20260430T06Z_MSC_RDPS_WindDir_IsbL-0550_RLatLon0.09_PT020H.grib2 2026-04-30 08:46 559K
20260430T06Z_MSC_RDPS_WindDir_IsbL-0600_RLatLon0.09_PT020H.grib2 2026-04-30 08:46 592K
20260430T06Z_MSC_RDPS_WindDir_IsbL-0650_RLatLon0.09_PT020H.grib2 2026-04-30 08:46 637K
20260430T06Z_MSC_RDPS_WindDir_IsbL-0700_RLatLon0.09_PT020H.grib2 2026-04-30 08:46 689K
20260430T06Z_MSC_RDPS_WindDir_IsbL-0750_RLatLon0.09_PT020H.grib2 2026-04-30 08:46 736K
20260430T06Z_MSC_RDPS_WindDir_IsbL-0800_RLatLon0.09_PT020H.grib2 2026-04-30 08:46 795K
20260430T06Z_MSC_RDPS_WindDir_IsbL-0850_RLatLon0.09_PT020H.grib2 2026-04-30 08:46 858K
20260430T06Z_MSC_RDPS_WindDir_IsbL-0875_RLatLon0.09_PT020H.grib2 2026-04-30 08:46 883K
20260430T06Z_MSC_RDPS_WindDir_IsbL-0900_RLatLon0.09_PT020H.grib2 2026-04-30 08:46 902K
20260430T06Z_MSC_RDPS_WindDir_IsbL-0925_RLatLon0.09_PT020H.grib2 2026-04-30 08:46 909K
20260430T06Z_MSC_RDPS_WindDir_IsbL-0950_RLatLon0.09_PT020H.grib2 2026-04-30 08:46 910K
20260430T06Z_MSC_RDPS_WindDir_IsbL-0970_RLatLon0.09_PT020H.grib2 2026-04-30 08:46 916K
20260430T06Z_MSC_RDPS_WindDir_IsbL-0985_RLatLon0.09_PT020H.grib2 2026-04-30 08:46 925K
20260430T06Z_MSC_RDPS_WindDir_IsbL-1000_RLatLon0.09_PT020H.grib2 2026-04-30 08:46 940K
20260430T06Z_MSC_RDPS_WindDir_IsbL-1015_RLatLon0.09_PT020H.grib2 2026-04-30 08:46 957K
20260430T06Z_MSC_RDPS_WindGust-Max_AGL-10m_RLatLon0.09_PT020H.grib2 2026-04-30 08:46 1.0M
20260430T06Z_MSC_RDPS_WindGust-Min_AGL-10m_RLatLon0.09_PT020H.grib2 2026-04-30 08:46 953K
20260430T06Z_MSC_RDPS_WindGust_AGL-10m_RLatLon0.09_PT020H.grib2 2026-04-30 08:46 1.0M
20260430T06Z_MSC_RDPS_WindSpeed_AGL-10m_RLatLon0.09_PT020H.grib2 2026-04-30 08:46 823K
20260430T06Z_MSC_RDPS_WindSpeed_AGL-120m_RLatLon0.09_PT020H.grib2 2026-04-30 08:46 528K
20260430T06Z_MSC_RDPS_WindSpeed_AGL-40m_RLatLon0.09_PT020H.grib2 2026-04-30 08:46 529K
20260430T06Z_MSC_RDPS_WindSpeed_AGL-80m_RLatLon0.09_PT020H.grib2 2026-04-30 08:46 529K
20260430T06Z_MSC_RDPS_WindSpeed_IsbL-0001_RLatLon0.09_PT020H.grib2 2026-04-30 08:46 251K
20260430T06Z_MSC_RDPS_WindSpeed_IsbL-0005_RLatLon0.09_PT020H.grib2 2026-04-30 08:46 380K
20260430T06Z_MSC_RDPS_WindSpeed_IsbL-0010_RLatLon0.09_PT020H.grib2 2026-04-30 08:46 395K
20260430T06Z_MSC_RDPS_WindSpeed_IsbL-0020_RLatLon0.09_PT020H.grib2 2026-04-30 08:46 322K
20260430T06Z_MSC_RDPS_WindSpeed_IsbL-0030_RLatLon0.09_PT020H.grib2 2026-04-30 08:46 323K
20260430T06Z_MSC_RDPS_WindSpeed_IsbL-0050_RLatLon0.09_PT020H.grib2 2026-04-30 08:46 448K
20260430T06Z_MSC_RDPS_WindSpeed_IsbL-0100_RLatLon0.09_PT020H.grib2 2026-04-30 08:46 474K
20260430T06Z_MSC_RDPS_WindSpeed_IsbL-0150_RLatLon0.09_PT020H.grib2 2026-04-30 08:46 385K
20260430T06Z_MSC_RDPS_WindSpeed_IsbL-0175_RLatLon0.09_PT020H.grib2 2026-04-30 08:46 430K
20260430T06Z_MSC_RDPS_WindSpeed_IsbL-0200_RLatLon0.09_PT020H.grib2 2026-04-30 08:46 446K
20260430T06Z_MSC_RDPS_WindSpeed_IsbL-0225_RLatLon0.09_PT020H.grib2 2026-04-30 08:46 453K
20260430T06Z_MSC_RDPS_WindSpeed_IsbL-0250_RLatLon0.09_PT020H.grib2 2026-04-30 08:46 457K
20260430T06Z_MSC_RDPS_WindSpeed_IsbL-0275_RLatLon0.09_PT020H.grib2 2026-04-30 08:46 475K
20260430T06Z_MSC_RDPS_WindSpeed_IsbL-0300_RLatLon0.09_PT020H.grib2 2026-04-30 08:46 470K
20260430T06Z_MSC_RDPS_WindSpeed_IsbL-0350_RLatLon0.09_PT020H.grib2 2026-04-30 08:46 481K
20260430T06Z_MSC_RDPS_WindSpeed_IsbL-0400_RLatLon0.09_PT020H.grib2 2026-04-30 08:46 482K
20260430T06Z_MSC_RDPS_WindSpeed_IsbL-0450_RLatLon0.09_PT020H.grib2 2026-04-30 08:46 482K
20260430T06Z_MSC_RDPS_WindSpeed_IsbL-0500_RLatLon0.09_PT020H.grib2 2026-04-30 08:46 483K
20260430T06Z_MSC_RDPS_WindSpeed_IsbL-0550_RLatLon0.09_PT020H.grib2 2026-04-30 08:46 465K
20260430T06Z_MSC_RDPS_WindSpeed_IsbL-0600_RLatLon0.09_PT020H.grib2 2026-04-30 08:46 474K
20260430T06Z_MSC_RDPS_WindSpeed_IsbL-0650_RLatLon0.09_PT020H.grib2 2026-04-30 08:46 615K
20260430T06Z_MSC_RDPS_WindSpeed_IsbL-0700_RLatLon0.09_PT020H.grib2 2026-04-30 08:46 641K
20260430T06Z_MSC_RDPS_WindSpeed_IsbL-0750_RLatLon0.09_PT020H.grib2 2026-04-30 08:46 669K
20260430T06Z_MSC_RDPS_WindSpeed_IsbL-0800_RLatLon0.09_PT020H.grib2 2026-04-30 08:46 752K
20260430T06Z_MSC_RDPS_WindSpeed_IsbL-0850_RLatLon0.09_PT020H.grib2 2026-04-30 08:46 757K
20260430T06Z_MSC_RDPS_WindSpeed_IsbL-0875_RLatLon0.09_PT020H.grib2 2026-04-30 08:46 777K
20260430T06Z_MSC_RDPS_WindSpeed_IsbL-0900_RLatLon0.09_PT020H.grib2 2026-04-30 08:46 839K
20260430T06Z_MSC_RDPS_WindSpeed_IsbL-0925_RLatLon0.09_PT020H.grib2 2026-04-30 08:46 850K
20260430T06Z_MSC_RDPS_WindSpeed_IsbL-0950_RLatLon0.09_PT020H.grib2 2026-04-30 08:46 849K
20260430T06Z_MSC_RDPS_WindSpeed_IsbL-0970_RLatLon0.09_PT020H.grib2 2026-04-30 08:46 850K
20260430T06Z_MSC_RDPS_WindSpeed_IsbL-0985_RLatLon0.09_PT020H.grib2 2026-04-30 08:46 843K
20260430T06Z_MSC_RDPS_WindSpeed_IsbL-1000_RLatLon0.09_PT020H.grib2 2026-04-30 08:46 836K
20260430T06Z_MSC_RDPS_WindSpeed_IsbL-1015_RLatLon0.09_PT020H.grib2 2026-04-30 08:46 826K
20260430T06Z_MSC_RDPS_WindU_AGL-10m_RLatLon0.09_PT020H.grib2 2026-04-30 08:46 425K
20260430T06Z_MSC_RDPS_WindU_AGL-120m_RLatLon0.09_PT020H.grib2 2026-04-30 08:46 529K
20260430T06Z_MSC_RDPS_WindU_AGL-40m_RLatLon0.09_PT020H.grib2 2026-04-30 08:46 531K
20260430T06Z_MSC_RDPS_WindU_AGL-80m_RLatLon0.09_PT020H.grib2 2026-04-30 08:46 531K
20260430T06Z_MSC_RDPS_WindU_IsbL-0001_RLatLon0.09_PT020H.grib2 2026-04-30 08:46 241K
20260430T06Z_MSC_RDPS_WindU_IsbL-0005_RLatLon0.09_PT020H.grib2 2026-04-30 08:46 285K
20260430T06Z_MSC_RDPS_WindU_IsbL-0010_RLatLon0.09_PT020H.grib2 2026-04-30 08:46 296K
20260430T06Z_MSC_RDPS_WindU_IsbL-0020_RLatLon0.09_PT020H.grib2 2026-04-30 08:46 310K
20260430T06Z_MSC_RDPS_WindU_IsbL-0030_RLatLon0.09_PT020H.grib2 2026-04-30 08:46 312K
20260430T06Z_MSC_RDPS_WindU_IsbL-0050_RLatLon0.09_PT020H.grib2 2026-04-30 08:46 340K
20260430T06Z_MSC_RDPS_WindU_IsbL-0100_RLatLon0.09_PT020H.grib2 2026-04-30 08:46 429K
20260430T06Z_MSC_RDPS_WindU_IsbL-0150_RLatLon0.09_PT020H.grib2 2026-04-30 08:46 401K
20260430T06Z_MSC_RDPS_WindU_IsbL-0175_RLatLon0.09_PT020H.grib2 2026-04-30 08:46 423K
20260430T06Z_MSC_RDPS_WindU_IsbL-0200_RLatLon0.09_PT020H.grib2 2026-04-30 08:46 341K
20260430T06Z_MSC_RDPS_WindU_IsbL-0225_RLatLon0.09_PT020H.grib2 2026-04-30 08:46 346K
20260430T06Z_MSC_RDPS_WindU_IsbL-0250_RLatLon0.09_PT020H.grib2 2026-04-30 08:46 348K
20260430T06Z_MSC_RDPS_WindU_IsbL-0275_RLatLon0.09_PT020H.grib2 2026-04-30 08:46 362K
20260430T06Z_MSC_RDPS_WindU_IsbL-0300_RLatLon0.09_PT020H.grib2 2026-04-30 08:46 357K
20260430T06Z_MSC_RDPS_WindU_IsbL-0350_RLatLon0.09_PT020H.grib2 2026-04-30 08:46 366K
20260430T06Z_MSC_RDPS_WindU_IsbL-0400_RLatLon0.09_PT020H.grib2 2026-04-30 08:46 368K
20260430T06Z_MSC_RDPS_WindU_IsbL-0450_RLatLon0.09_PT020H.grib2 2026-04-30 08:46 470K
20260430T06Z_MSC_RDPS_WindU_IsbL-0500_RLatLon0.09_PT020H.grib2 2026-04-30 08:46 472K
20260430T06Z_MSC_RDPS_WindU_IsbL-0550_RLatLon0.09_PT020H.grib2 2026-04-30 08:46 472K
20260430T06Z_MSC_RDPS_WindU_IsbL-0600_RLatLon0.09_PT020H.grib2 2026-04-30 08:46 481K
20260430T06Z_MSC_RDPS_WindU_IsbL-0650_RLatLon0.09_PT020H.grib2 2026-04-30 08:46 485K
20260430T06Z_MSC_RDPS_WindU_IsbL-0700_RLatLon0.09_PT020H.grib2 2026-04-30 08:46 509K
20260430T06Z_MSC_RDPS_WindU_IsbL-0750_RLatLon0.09_PT020H.grib2 2026-04-30 08:46 533K
20260430T06Z_MSC_RDPS_WindU_IsbL-0800_RLatLon0.09_PT020H.grib2 2026-04-30 08:46 568K
20260430T06Z_MSC_RDPS_WindU_IsbL-0850_RLatLon0.09_PT020H.grib2 2026-04-30 08:46 612K
20260430T06Z_MSC_RDPS_WindU_IsbL-0875_RLatLon0.09_PT020H.grib2 2026-04-30 08:46 629K
20260430T06Z_MSC_RDPS_WindU_IsbL-0900_RLatLon0.09_PT020H.grib2 2026-04-30 08:46 642K
20260430T06Z_MSC_RDPS_WindU_IsbL-0925_RLatLon0.09_PT020H.grib2 2026-04-30 08:46 650K
20260430T06Z_MSC_RDPS_WindU_IsbL-0950_RLatLon0.09_PT020H.grib2 2026-04-30 08:46 650K
20260430T06Z_MSC_RDPS_WindU_IsbL-0970_RLatLon0.09_PT020H.grib2 2026-04-30 08:46 788K
20260430T06Z_MSC_RDPS_WindU_IsbL-0985_RLatLon0.09_PT020H.grib2 2026-04-30 08:46 782K
20260430T06Z_MSC_RDPS_WindU_IsbL-1000_RLatLon0.09_PT020H.grib2 2026-04-30 08:46 777K
20260430T06Z_MSC_RDPS_WindU_IsbL-1015_RLatLon0.09_PT020H.grib2 2026-04-30 08:46 816K
20260430T06Z_MSC_RDPS_WindV_AGL-10m_RLatLon0.09_PT020H.grib2 2026-04-30 08:46 421K
20260430T06Z_MSC_RDPS_WindV_AGL-120m_RLatLon0.09_PT020H.grib2 2026-04-30 08:46 524K
20260430T06Z_MSC_RDPS_WindV_AGL-40m_RLatLon0.09_PT020H.grib2 2026-04-30 08:46 525K
20260430T06Z_MSC_RDPS_WindV_AGL-80m_RLatLon0.09_PT020H.grib2 2026-04-30 08:46 525K
20260430T06Z_MSC_RDPS_WindV_IsbL-0001_RLatLon0.09_PT020H.grib2 2026-04-30 08:46 243K
20260430T06Z_MSC_RDPS_WindV_IsbL-0005_RLatLon0.09_PT020H.grib2 2026-04-30 08:46 285K
20260430T06Z_MSC_RDPS_WindV_IsbL-0010_RLatLon0.09_PT020H.grib2 2026-04-30 08:46 299K
20260430T06Z_MSC_RDPS_WindV_IsbL-0020_RLatLon0.09_PT020H.grib2 2026-04-30 08:46 314K
20260430T06Z_MSC_RDPS_WindV_IsbL-0030_RLatLon0.09_PT020H.grib2 2026-04-30 08:46 316K
20260430T06Z_MSC_RDPS_WindV_IsbL-0050_RLatLon0.09_PT020H.grib2 2026-04-30 08:46 341K
20260430T06Z_MSC_RDPS_WindV_IsbL-0100_RLatLon0.09_PT020H.grib2 2026-04-30 08:46 426K
20260430T06Z_MSC_RDPS_WindV_IsbL-0150_RLatLon0.09_PT020H.grib2 2026-04-30 08:46 396K
20260430T06Z_MSC_RDPS_WindV_IsbL-0175_RLatLon0.09_PT020H.grib2 2026-04-30 08:46 421K
20260430T06Z_MSC_RDPS_WindV_IsbL-0200_RLatLon0.09_PT020H.grib2 2026-04-30 08:46 435K
20260430T06Z_MSC_RDPS_WindV_IsbL-0225_RLatLon0.09_PT020H.grib2 2026-04-30 08:46 441K
20260430T06Z_MSC_RDPS_WindV_IsbL-0250_RLatLon0.09_PT020H.grib2 2026-04-30 08:46 443K
20260430T06Z_MSC_RDPS_WindV_IsbL-0275_RLatLon0.09_PT020H.grib2 2026-04-30 08:46 359K
20260430T06Z_MSC_RDPS_WindV_IsbL-0300_RLatLon0.09_PT020H.grib2 2026-04-30 08:46 355K
20260430T06Z_MSC_RDPS_WindV_IsbL-0350_RLatLon0.09_PT020H.grib2 2026-04-30 08:46 363K
20260430T06Z_MSC_RDPS_WindV_IsbL-0400_RLatLon0.09_PT020H.grib2 2026-04-30 08:46 467K
20260430T06Z_MSC_RDPS_WindV_IsbL-0450_RLatLon0.09_PT020H.grib2 2026-04-30 08:46 467K
20260430T06Z_MSC_RDPS_WindV_IsbL-0500_RLatLon0.09_PT020H.grib2 2026-04-30 08:46 468K
20260430T06Z_MSC_RDPS_WindV_IsbL-0550_RLatLon0.09_PT020H.grib2 2026-04-30 08:46 469K
20260430T06Z_MSC_RDPS_WindV_IsbL-0600_RLatLon0.09_PT020H.grib2 2026-04-30 08:46 461K
20260430T06Z_MSC_RDPS_WindV_IsbL-0650_RLatLon0.09_PT020H.grib2 2026-04-30 08:46 481K
20260430T06Z_MSC_RDPS_WindV_IsbL-0700_RLatLon0.09_PT020H.grib2 2026-04-30 08:46 505K
20260430T06Z_MSC_RDPS_WindV_IsbL-0750_RLatLon0.09_PT020H.grib2 2026-04-30 08:46 528K
20260430T06Z_MSC_RDPS_WindV_IsbL-0800_RLatLon0.09_PT020H.grib2 2026-04-30 08:46 563K
20260430T06Z_MSC_RDPS_WindV_IsbL-0850_RLatLon0.09_PT020H.grib2 2026-04-30 08:46 608K
20260430T06Z_MSC_RDPS_WindV_IsbL-0875_RLatLon0.09_PT020H.grib2 2026-04-30 08:46 625K
20260430T06Z_MSC_RDPS_WindV_IsbL-0900_RLatLon0.09_PT020H.grib2 2026-04-30 08:46 639K
20260430T06Z_MSC_RDPS_WindV_IsbL-0925_RLatLon0.09_PT020H.grib2 2026-04-30 08:46 785K
20260430T06Z_MSC_RDPS_WindV_IsbL-0950_RLatLon0.09_PT020H.grib2 2026-04-30 08:46 785K
20260430T06Z_MSC_RDPS_WindV_IsbL-0970_RLatLon0.09_PT020H.grib2 2026-04-30 08:46 784K
20260430T06Z_MSC_RDPS_WindV_IsbL-0985_RLatLon0.09_PT020H.grib2 2026-04-30 08:46 777K
20260430T06Z_MSC_RDPS_WindV_IsbL-1000_RLatLon0.09_PT020H.grib2 2026-04-30 08:46 816K
20260430T06Z_MSC_RDPS_WindV_IsbL-1015_RLatLon0.09_PT020H.grib2 2026-04-30 08:46 808K